Starlink 5969

operational
NORAD ID: 55993 Int'l Des: 2023-042 Owner: SPXS Country: US Constellation: starlink
LEOCIRCULAR

Über Starlink 5969

Beschreibung wird geladen...

Live-Position

3D-Globus wird geladen...

Nächste Überflüge

Höhenverlauf

Altitude vs Time

uPlot chart will show altitude changes over time

Zweizeiliger Elementsatz

1 55993U 23042H 25303.70050595 .00000012 00000-0 15986-4 0 9992
2 55993 43.0036 42.6949 0001483 269.4703 90.5969 15.02537023143352
Epoch: 30. Okt. 2025 • Age: 11 hours

Aktueller Status

Höhe 569.7 km
Geschwindigkeit 7.58 km/s
Subsatellitenpunkt -38.94°S, 114.25°W
Startdatum 24. März 2023
Alter 2.6 years
Typ internet

Technische Details

Klassifizierung Payload
Masse 305.00 kg
Trockenmasse 290.00 kg
Gesamtmasse 305.00 kg
Länge 0.20 m
Durchmesser 2.80 m
Spannweite 9.00 m
Form Box + pan
Hersteller SPXS
Bus-Typ Starlink
Phasenstatus In Orbit
Besitzer/Staat SPXS/US

Große Konstellationen

Loading constellations...